[Iaude] MPEC N68: 2024 NG1 [a=2.90,e=0.58,i=33.3,H=21.4]
    mpec at cfa.harvard.edu 
    mpec at cfa.harvard.edu
       
    Fri Jul  5 18:08:58 EDT 2024
    
    
  
M.P.E.C. 2024-N68                                  Issued 2024 July 5, 22:07 UT
     The Minor Planet Electronic Circulars contain information on unusual
         minor planets, routine data on comets and natural satellites,
         and occasional editorial announcements.  They are published
    on behalf of Division F of the International Astronomical Union by the
          Minor Planet Center, Smithsonian Astrophysical Observatory,
                          Cambridge, MA 02138, U.S.A.
			  
             Prepared using the Tamkin Foundation Computer Network
                              MPC at CFA.HARVARD.EDU
            URL https://www.minorplanetcenter.net/    ISSN 1523-6714
                                    2024 NG1                                    
Observations:
     K24N01G  C2024 06 27.52073221 44 20.333+29 28 12.38         22.25GVEN068F52
     K24N01G  C2024 06 27.53663721 44 23.393+29 27 50.71         21.90GVEN068F52
     K24N01G* C2024 07 03.48763522 05 09.453+26 35 23.99         21.78wXEN068F52
     K24N01G  C2024 07 03.50077222 05 12.233+26 34 56.38         21.32wXEN068F52
     K24N01G  C2024 07 03.51397822 05 15.008+26 34 28.38         21.74wXEN068F52
     K24N01G  C2024 07 03.59013322 05 31.009+26 31 45.85         21.64GVEN068F52
     K24N01G  C2024 07 03.59096022 05 31.197+26 31 43.98         21.62GVEN068F52
     K24N01G !C2024 07 05.15042022 11 17.690+25 32 47.74         21.9 GVEN068J04
     K24N01G !C2024 07 05.16464122 11 20.727+25 32 14.55         21.8 GVEN068J04
     K24N01G !C2024 07 05.17695822 11 23.403+25 31 44.48         21.3 GVEN068J04
     K24N01G KC2024 07 05.35696 22 12 04.58 +25 24 29.0          21.2 RVEN068291
     K24N01G KC2024 07 05.36010 22 12 05.25 +25 24 21.2          21.4 RVEN068291
     K24N01G KC2024 07 05.36322 22 12 05.91 +25 24 14.0          21.9 RVEN068291
     K24N01G 3C2024 07 05.40614322 12 16.194+25 22 31.25         21.36GVEN068T14
     K24N01G 3C2024 07 05.40711822 12 16.406+25 22 28.93         21.43GVEN068T14
     K24N01G 3C2024 07 05.40809722 12 16.620+25 22 26.59         21.43GVEN068T14
Observer details:
291 LPL/Spacewatch II.  Observer C. Lejoly.  1.8-m f/2.7 reflector + CCD.
F52 Pan-STARRS 2, Haleakala.  Observers J. Herman, T. Lowe, P. Minguez, A.
    Schultz, I. Smith.  Measurers K. Chambers, T. de Boer, J. Fairlamb, H.
    Gao, M. Huber, C.-C. Lin, E. Magnier, Y. Ramanjooloo, R. Wainscoat, R.
    Weryk.  1.8-m Ritchey-Chretien + CCD.
J04 ESA Optical Ground Station, Tenerife.  Observers D. Abreu, M. Micheli, F.
    Ocana, L. Conversi.  Measurers R. Kresken, M. Micheli, F. Ocana, A.
    Knofel, M. Busch.  1.0-m f/4.4 reflector + CCD.
T14 Canada-France-Hawaii Telescope, Maunakea.  Observers R. Wainscoat, H.
    Januszewski, H. Flewelling.  Measurers R. Weryk, R. Wainscoat.  3.6-m
    f/4.1 reflector + CCD.
Orbital elements:
2024 NG1                                                 Earth MOID = 0.1961 AU
Epoch 2024 Mar. 31.0 TT = JDT 2460400.5                 MPC                     
M 336.70323              (2000.0)            P               Q                  
n   0.19938990     Peri.  179.19294     +0.69169884     +0.60642988             
a   2.9017986      Node   134.44080     -0.66563222     +0.74599964             
e   0.5830238      Incl.   33.31724     -0.28015435     -0.27518600             
P   4.94           H   21.42          G   0.15           U   8                  
Residuals in seconds of arc
240627 F52  0.0   0.0     240703 F52  0.1+  0.0     240705 291  0.2-  0.0
240627 F52  0.0   0.0     240705 J04  0.2+  0.1+    240705 T14  0.0   0.1-
240703 F52  0.0   0.1-    240705 J04  0.2-  0.7+    240705 T14  0.0   0.1-
240703 F52  0.1+  0.0     240705 J04  0.0   0.0     240705 T14  0.1-  0.1-
240703 F52  0.0   0.1-    240705 291  0.3+  0.0
240703 F52  0.1-  0.1+    240705 291  0.1+  0.3-
Ephemeris:
2024 NG1                 a,e,i = 2.90, 0.58, 33                  q = 1.2100
Date    TT    R. A. (2000) Decl.     Delta      r    Elong.  Phase     V
2024 06 05    20 39 39.3 +32 39 50   0.6940  1.3492   102.7    47.2    23.1
...
2024 06 20    21 20 35.7 +31 36 09   0.5483  1.2822   106.2    49.6    22.5
...
2024 06 28    21 45 55.9 +29 16 57   0.4737  1.2544   109.1    50.0    22.1
...
2024 07 04    22 07 01.2 +26 16 53   0.4207  1.2376   112.0    49.6    21.9
2024 07 05    22 10 43.5 +25 38 48   0.4122  1.2352   112.6    49.5    21.8
2024 07 06    22 14 29.2 +24 58 06   0.4039  1.2328   113.2    49.3    21.7
...
2024 07 12    22 38 16.7 +19 51 49   0.3571  1.2212   117.1    47.8    21.4
...
2024 07 20    23 13 11.4 +09 47 02   0.3073  1.2120   123.2    44.6    21.0
...
2024 08 04    00 24 38.1 -17 46 53   0.2789  1.2149   130.7    39.3    20.6
A. U. Tomatic                (C) Copyright 2024 MPC           M.P.E.C. 2024-N68
    
    
More information about the Iaude
mailing list